Wind_Speed
13 13 13 13 13 13 13 13 13 13 13 13 13 13 14 14 14 14 14 14 15 15 16 16 16 16 16 16 16 17 17 17 17 17 17 18 18 18 19 19 19 20 20
13 13 13 13 13 14 14 14 14 14 14 14 14 14 14 14 14 15 15 15 16 16 16 17 17 17 17 17 17 18 18 18 18 18 19 19 19 20 20 20 21 21 21
13 13 14 14 15 14 14 14 14 14 14 14 14 15 15 15 15 16 16 16 17 17 17 18 18 18 18 18 19 19 19 19 20 20 21 21 21 21 21 22 22 22 23
13 14 14 15 15 15 15 15 15 16 16 16 16 16 16 17 17 17 17 18 18 18 18 18 19 19 19 20 21 21 22 22 22 22 22 23 23 23 23 23 24 24 25
15 15 15 15 15 15 16 16 17 17 16 17 17 17 17 18 18 18 19 19 19 19 20 20 20 21 21 21 22 23 23 24 24 24 24 24 25 25 25 26 26 27 27
15 15 16 16 16 16 16 17 17 17 17 17 18 18 18 18 18 18 19 20 20 21 21 21 21 22 22 23 24 24 24 25 25 25 26 26 26 27 27 28 28 29 29
14 14 15 15 16 16 16 16 16 17 17 17 17 17 17 18 18 19 20 20 20 21 21 22 22 23 24 24 25 25 26 26 26 27 27 27 28 29 30 30 31 31 31
14 14 15 15 16 16 16 17 17 17 17 18 18 19 19 19 19 20 20 21 21 22 22 23 24 25 25 26 27 27 27 28 29 29 29 30 31 31 32 32 33 33 33
14 15 15 16 17 17 18 18 18 18 18 19 19 19 19 20 20 21 21 22 23 23 24 26 26 26 27 28 28 28 29 30 30 31 31 31 31 32 33 34 34 35 35
15 15 16 17 18 18 19 19 19 19 19 20 20 20 21 21 21 22 23 23 24 25 26 27 28 28 29 29 29 30 31 31 31 31 31 32 33 34 34 35 35 36 36
16 17 17 17 18 19 20 20 20 20 21 21 22 22 22 22 23 24 25 25 26 27 27 28 29 29 30 31 32 32 32 32 32 33 33 34 35 35 35 36 36 37 37
18 19 19 19 20 21 21 21 22 22 23 23 23 24 24 25 26 26 27 27 28 29 30 30 30 31 32 33 34 34 34 34 34 34 34 35 35 36 36 37 38 39 39
20 20 20 21 21 22 22 22 22 23 24 24 24 25 25 26 27 27 28 29 29 30 31 31 32 33 34 34 35 36 35 36 36 36 36 36 36 37 37 38 39 40 40
21 22 22 22 23 23 23 23 23 24 25 25 25 26 27 27 28 28 29 30 31 32 32 32 33 34 34 35 36 36 36 36 36 36 36 37 37 38 38 39 39 40 40
23 24 24 24 24 24 25 25 25 25 26 26 26 27 28 29 30 30 30 30 31 31 32 33 34 34 35 35 36 36 36 36 36 37 37 37 38 38 39 40 40 40 41
24 25 25 26 26 26 26 27 27 26 27 27 27 28 28 29 30 30 31 31 32 32 33 33 34 34 35 36 36 36 37 37 38 38 38 38 39 39 40 40 40 41 42
25 25 25 26 26 26 27 27 27 28 28 28 28 29 29 30 30 30 30 31 32 33 33 33 34 34 35 36 36 37 38 39 39 39 39 39 40 40 40 41 41 42 43
26 26 26 26 27 27 27 27 27 28 28 28 28 29 30 30 30 31 31 32 33 34 35 35 35 35 35 35 36 37 38 38 39 39 39 40 40 40 41 41 42 43 44
26 26 26 27 27 28 28 28 28 29 29 29 29 30 30 31 31 32 32 33 34 34 35 35 35 35 35 35 35 36 36 37 37 38 38 39 40 40 41 42 43 43 44
26 27 27 28 28 28 28 29 30 29 30 30 30 30 31 32 33 33 34 34 35 35 35 35 35 35 35 35 36 36 37 37 38 38 38 39 39 40 41 42 42 42 43
27 28 28 29 29 29 29 29 29 30 30 31 31 32 32 33 33 34 34 35 35 35 35 35 35 36 36 37 37 37 38 38 38 38 38 38 39 39 40 41 41 42 43
28 29 29 29 29 30 30 30 30 31 31 32 33 33 32 33 33 33 33 34 34 35 35 35 36 36 37 38 38 38 38 38 38 38 38 38 39 40 41 41 41 42 43
28 28 28 29 29 30 30 30 30 31 31 32 32 32 32 32 32 32 33 34 34 35 36 36 37 37 38 38 39 39 38 38 38 38 38 38 39 39 40 40 41 41 42
29 29 28 29 29 29 29 29 30 31 31 32 32 32 32 32 33 33 34 34 34 35 36 36 36 37 37 38 37 37 37 37 37 37 37 38 39 39 40 40 41 41 41
29 28 28 28 28 28 29 30 30 31 32 32 32 32 32 32 32 33 33 33 34 34 35 35 36 36 37 37 37 36 36 37 37 37 38 38 38 39 39 40 40 40 40
28 28 28 28 28 29 30 30 31 31 32 32 32 32 32 32 33 33 33 33 34 34 35 36 36 37 37 37 37 37 37 38 37 37 38 38 38 39 39 39 39 39 39
Wind_Direction
255 256 260 260 259 260 262 264 266 269 269 272 274 275 276 278 279 281 282 285 287 288 288 289 290 290 291 291 291 291 291 291 291 292 293 293 293 293 293 292 290 290 290
256 255 259 261 261 261 261 263 266 268 270 272 273 274 275 277 280 282 283 285 286 287 288 290 291 292 290 290 290 290 291 291 289 289 290 291 292 292 293 292 291 291 291
257 257 258 261 263 264 263 266 267 268 271 273 273 273 275 277 279 281 283 285 285 286 288 290 292 291 290 290 291 290 291 290 289 289 289 289 290 291 292 292 292 292 291
259 259 261 263 264 263 264 269 272 272 273 274 275 276 275 276 278 281 282 283 285 287 288 290 291 291 291 291 291 290 290 289 289 289 289 289 289 289 289 290 291 291 291
261 260 261 264 265 266 268 271 274 274 275 275 275 276 276 277 278 282 283 284 286 287 288 289 289 289 289 290 290 290 289 289 288 288 288 288 289 288 289 289 289 290 291
265 263 263 265 267 268 271 273 275 276 277 277 277 278 279 278 280 282 284 285 286 287 288 289 289 290 290 291 292 291 290 289 288 287 288 288 288 289 288 289 289 290 290
267 266 266 265 267 268 270 271 273 277 279 280 279 278 279 280 281 283 284 285 286 287 288 288 289 290 290 291 291 290 289 289 288 287 287 287 289 289 289 289 289 290 289
267 267 268 267 266 266 268 271 274 277 278 279 279 279 280 282 282 285 286 287 288 288 289 289 290 290 290 290 290 290 290 290 289 289 288 288 289 289 289 289 289 290 290
266 269 269 270 268 268 270 273 275 277 279 279 280 281 282 284 285 286 287 288 289 289 290 291 291 291 291 291 290 290 290 290 290 291 290 290 290 290 290 290 290 290 291
267 270 271 271 271 272 273 274 275 277 279 279 281 282 283 284 285 287 288 289 289 290 291 292 292 291 292 292 291 291 291 291 291 291 290 290 291 291 291 291 290 290 290
267 270 272 273 273 274 275 275 275 277 279 280 281 282 283 283 285 287 288 288 289 290 291 291 291 291 291 292 292 291 291 290 290 290 290 290 291 291 291 291 291 291 291
270 271 272 274 274 275 275 276 277 279 281 282 283 284 283 283 285 286 288 288 289 291 292 292 291 291 292 292 293 292 291 291 290 290 290 290 291 291 292 292 292 292 292
270 271 272 274 276 275 276 277 279 281 282 283 284 285 285 286 287 287 288 289 290 292 293 293 292 291 291 292 292 291 290 290 290 290 290 290 290 291 292 292 293 293 294
269 271 272 274 275 275 275 278 280 282 283 282 283 284 285 287 288 289 289 290 291 291 292 292 292 292 293 294 293 291 290 289 289 290 290 290 291 292 293 293 293 293 294
271 272 272 272 273 274 276 279 281 282 282 283 283 285 286 286 287 288 289 291 292 292 292 292 293 293 293 294 293 292 291 290 290 291 291 291 292 293 293 294 294 294 295
275 275 272 272 274 276 278 280 280 280 282 283 283 284 286 288 289 290 290 291 293 294 295 295 295 295 295 294 293 292 292 291 291 291 291 291 292 293 293 293 294 295 296
275 276 277 278 278 278 279 279 279 279 280 282 284 285 287 289 290 291 292 292 295 296 297 298 298 297 297 297 296 295 294 292 291 290 290 291 292 292 293 294 294 295 297
275 276 277 277 279 280 280 280 281 281 280 281 284 287 289 291 291 292 293 294 296 297 298 299 298 298 298 298 297 297 296 294 293 292 291 291 292 293 294 295 296 296 297
275 276 277 278 279 280 279 280 281 281 282 284 285 287 289 290 291 293 294 295 296 297 298 298 299 299 299 299 300 300 299 297 296 296 295 294 294 295 295 296 298 298 299
275 276 277 278 279 280 280 281 282 282 283 284 286 287 288 289 291 292 293 295 296 297 298 299 299 299 300 300 300 300 300 299 298 297 297 297 297 297 298 298 299 299 300
274 276 277 278 280 280 282 283 283 283 285 287 286 287 288 288 289 291 293 295 296 297 298 299 300 300 300 300 300 300 300 300 298 297 297 297 298 298 299 299 299 300 301
277 276 277 279 281 282 282 282 283 284 285 286 287 287 288 290 292 293 294 295 297 298 299 299 300 301 301 300 301 301 300 299 299 298 298 297 297 299 300 301 301 301 302
279 279 279 280 282 283 282 282 285 286 286 288 288 289 290 292 293 294 296 297 298 298 299 299 299 300 301 301 301 301 300 300 299 299 299 300 300 301 302 302 303 303 304
279 281 281 281 282 284 285 285 286 287 289 290 291 291 292 292 293 294 295 297 298 299 299 300 300 301 302 302 303 302 302 302 301 300 300 301 302 302 303 303 304 305 306
281 282 283 283 284 285 286 287 288 288 289 290 291 292 291 292 293 295 297 297 298 299 300 301 302 303 303 303 303 302 304 304 303 302 302 302 302 303 305 305 305 306 306
281 282 283 284 285 286 288 288 289 289 289 289 290 291 291 292 293 295 297 298 299 300 300 301 302 303 303 303 302 302 303 304 305 304 303 302 303 304 305 305 306 306 308
Height
5845 5846 5846 5846 5846 5847 5847 5846 5846 5846 5845 5845 5845 5844 5843 5843 5842 5841 5841 5840 5839 5838 5837 5836 5835 5834 5832 5831 5830 5829 5827 5826 5825 5823 5821 5819 5817 5815 5813 5812 5811 5809 5807
5842 5842 5842 5842 5842 5843 5843 5842 5842 5842 5842 5841 5841 5840 5839 5839 5838 5837 5837 5836 5835 5834 5833 5831 5830 5829 5828 5827 5826 5824 5823 5821 5820 5818 5816 5815 5813 5811 5809 5807 5805 5803 5802
5838 5838 5839 5839 5839 5839 5839 5839 5838 5838 5838 5837 5837 5836 5835 5834 5834 5833 5832 5832 5831 5830 5828 5827 5826 5825 5823 5822 5821 5819 5818 5816 5814 5812 5811 5809 5807 5805 5803 5801 5799 5797 5795
5834 5834 5835 5835 5835 5835 5835 5835 5834 5834 5834 5833 5832 5832 5831 5830 5830 5829 5828 5827 5826 5825 5824 5822 5821 5819 5818 5817 5815 5813 5812 5810 5808 5806 5804 5802 5800 5799 5797 5795 5793 5791 5789
5830 5830 5831 5831 5831 5831 5831 5830 5830 5830 5829 5829 5828 5827 5827 5826 5825 5824 5823 5822 5821 5820 5818 5817 5815 5814 5812 5811 5809 5807 5805 5803 5801 5800 5798 5796 5794 5792 5790 5788 5786 5784 5782
5826 5826 5827 5827 5827 5826 5826 5826 5825 5825 5824 5824 5823 5822 5821 5821 5820 5819 5818 5817 5816 5814 5813 5811 5809 5808 5806 5804 5802 5800 5798 5796 5794 5792 5791 5788 5786 5784 5782 5780 5778 5776 5774
5822 5822 5822 5822 5822 5822 5821 5821 5821 5820 5819 5819 5818 5817 5816 5815 5814 5813 5812 5811 5810 5808 5807 5805 5803 5801 5799 5797 5795 5793 5791 5788 5787 5785 5783 5780 5778 5776 5774 5772 5769 5767 5765
5817 5817 5818 5817 5817 5817 5817 5816 5816 5815 5814 5814 5813 5812 5811 5810 5809 5807 5806 5805 5803 5802 5800 5798 5797 5795 5792 5790 5788 5785 5783 5780 5778 5776 5774 5771 5769 5766 5764 5762 5759 5757 5755
5813 5813 5813 5813 5812 5812 5812 5811 5810 5810 5809 5808 5808 5806 5805 5804 5803 5802 5800 5799 5797 5795 5793 5791 5789 5787 5785 5782 5780 5777 5775 5772 5769 5766 5764 5761 5759 5756 5754 5752 5749 5747 5744
5808 5808 5808 5808 5807 5807 5806 5805 5805 5804 5803 5803 5802 5800 5799 5798 5797 5795 5794 5792 5790 5788 5786 5783 5781 5779 5776 5773 5771 5768 5765 5763 5760 5757 5754 5752 5749 5746 5743 5741 5738 5736 5733
5803 5803 5802 5802 5802 5801 5800 5799 5799 5798 5797 5796 5795 5794 5792 5791 5790 5788 5786 5785 5783 5780 5778 5775 5773 5770 5767 5764 5761 5758 5755 5753 5750 5747 5745 5742 5739 5736 5733 5730 5727 5724 5722
5797 5797 5797 5796 5795 5795 5794 5793 5792 5791 5790 5789 5788 5786 5785 5783 5782 5780 5778 5776 5774 5772 5769 5767 5764 5761 5758 5755 5751 5748 5745 5742 5740 5737 5734 5731 5728 5725 5722 5719 5716 5712 5709
5791 5791 5790 5790 5789 5788 5787 5786 5785 5784 5783 5781 5780 5779 5777 5775 5774 5771 5769 5767 5765 5762 5760 5757 5754 5751 5748 5744 5741 5738 5734 5732 5729 5726 5723 5720 5717 5714 5711 5708 5704 5701 5697
5785 5785 5784 5783 5782 5781 5780 5779 5778 5777 5775 5774 5772 5771 5769 5767 5765 5762 5760 5758 5755 5753 5750 5747 5744 5741 5737 5734 5730 5727 5724 5721 5717 5715 5712 5709 5706 5703 5700 5696 5693 5689 5685
5778 5777 5776 5776 5774 5774 5772 5771 5770 5769 5767 5765 5764 5762 5760 5758 5756 5753 5751 5748 5746 5743 5740 5737 5734 5730 5727 5723 5719 5716 5713 5709 5706 5703 5700 5698 5694 5691 5688 5684 5681 5677 5674
5770 5769 5768 5767 5767 5766 5765 5764 5762 5760 5758 5756 5755 5753 5751 5749 5746 5744 5741 5738 5736 5733 5729 5726 5723 5719 5716 5712 5708 5705 5701 5698 5695 5692 5689 5686 5683 5680 5676 5673 5669 5665 5661
5761 5761 5760 5759 5758 5757 5756 5755 5753 5752 5750 5748 5746 5744 5742 5739 5737 5734 5731 5729 5726 5722 5719 5716 5712 5708 5705 5701 5697 5693 5690 5686 5683 5680 5677 5674 5671 5667 5664 5660 5656 5652 5648
5753 5752 5752 5751 5750 5749 5747 5746 5744 5742 5741 5739 5737 5734 5732 5730 5728 5725 5722 5719 5716 5713 5709 5705 5701 5697 5694 5690 5686 5682 5678 5675 5671 5668 5665 5661 5658 5655 5651 5647 5644 5640 5635
5745 5744 5743 5742 5741 5740 5738 5737 5735 5733 5731 5730 5728 5725 5723 5720 5718 5715 5712 5709 5706 5703 5699 5695 5691 5687 5683 5679 5675 5671 5668 5664 5660 5656 5653 5649 5645 5642 5638 5634 5630 5626 5622
5736 5736 5735 5734 5732 5731 5729 5727 5725 5724 5722 5720 5718 5716 5714 5711 5709 5706 5703 5699 5696 5692 5689 5685 5681 5677 5673 5669 5665 5661 5657 5653 5649 5645 5641 5637 5633 5630 5626 5622 5618 5613 5609
5728 5727 5726 5725 5723 5722 5720 5718 5716 5714 5712 5710 5708 5706 5703 5701 5698 5695 5692 5689 5685 5682 5678 5674 5671 5667 5663 5659 5655 5651 5647 5642 5638 5634 5630 5626 5622 5618 5614 5610 5605 5601 5597
5718 5717 5716 5715 5714 5712 5710 5708 5706 5705 5703 5701 5698 5696 5693 5690 5688 5685 5682 5678 5675 5671 5668 5664 5660 5656 5652 5648 5644 5640 5636 5632 5627 5623 5619 5615 5611 5607 5603 5598 5594 5589 5584
5709 5708 5707 5706 5704 5702 5700 5699 5697 5695 5693 5690 5688 5685 5683 5680 5677 5675 5671 5668 5665 5661 5657 5654 5650 5646 5642 5637 5633 5629 5625 5621 5616 5612 5608 5604 5600 5596 5591 5587 5582 5578 5573
5700 5699 5697 5696 5694 5693 5691 5689 5687 5685 5683 5680 5678 5675 5673 5670 5667 5664 5661 5658 5654 5651 5647 5643 5639 5636 5631 5627 5622 5618 5614 5610 5606 5602 5597 5593 5589 5585 5580 5576 5571 5566 5561
5691 5689 5688 5686 5685 5683 5682 5680 5677 5675 5673 5671 5668 5665 5663 5660 5657 5654 5651 5647 5644 5641 5637 5633 5629 5625 5621 5617 5613 5608 5604 5600 5595 5591 5587 5583 5579 5574 5570 5565 5560 5556 5551
5681 5680 5679 5677 5675 5674 5672 5670 5668 5665 5663 5661 5658 5655 5653 5650 5647 5644 5641 5638 5634 5631 5627 5624 5620 5616 5611 5607 5603 5599 5594 5590 5585 5581 5576 5572 5568 5564 5559 5555 5550 5545 5541